{"data":{"norad_id":46610,"epoch":"2026-05-24T23:10:23.521728Z","epoch_age_seconds":78298,"freshness":"FRESH","line1":"1 46610U 20071A   26144.96555002 -.00000365  00000+0  00000+0 0  9999","line2":"2 46610   0.4633  84.9856 0041630 123.1174 140.2942  1.00271568 20686","mean_motion":1.00271568,"eccentricity":0.004163,"inclination_deg":0.4633,"raan_deg":84.9856,"arg_perigee_deg":123.1174,"mean_anomaly_deg":140.2942,"bstar":0,"rev_number":2068,"period_min":1436.1000119196,"perigee_km":35611.123761875,"apogee_km":35962.18782668,"semimajor_km":42164.792794278,"source":"CELESTRAK","updated_at":"2026-05-25T13:38:14.096701Z"}}